ECMWFFLT2_925_spd_096.txt.gz
Wind_Speed
12 15 14 11 9 6 7 9 10 9 8 8 7 7 7 8 7 4 5 6 3 4 6 6 5 6 7 8 10 12 13 15 16 13 10 10 11 12 12 12 13 16 18 19 18 18 17 17 16 16 17 18 18 17 17 18 17 17 18 18 17 16 15
13 13 14 15 13 8 5 8 10 8 5 6 6 6 7 8 8 4 6 8 6 5 4 3 5 7 8 9 11 12 13 15 16 15 12 10 11 12 12 12 13 15 17 18 18 17 17 16 16 16 18 18 18 17 17 18 18 18 18 18 17 16 16
12 12 12 13 15 14 9 5 8 10 7 7 7 6 7 8 8 6 7 8 8 6 4 5 6 7 8 10 11 12 13 15 15 15 14 13 12 12 12 12 12 13 16 17 17 16 16 15 15 16 17 16 16 16 16 17 17 17 17 17 16 16 16
11 11 10 10 12 14 11 7 7 9 7 8 8 7 7 7 7 7 7 8 7 3 1 5 7 7 9 11 11 11 12 14 14 15 14 13 11 11 11 12 11 12 15 16 15 15 14 15 15 14 15 15 15 15 15 16 16 16 16 16 16 16 16
9 9 10 11 11 12 11 8 8 9 7 7 7 8 9 7 7 6 7 8 4 2 4 4 7 7 8 9 9 9 10 12 13 14 15 12 8 7 8 9 11 13 15 15 14 14 13 13 13 13 14 14 14 15 15 15 16 16 16 16 16 16 16
9 10 12 12 10 12 13 10 9 10 9 8 7 8 8 7 7 6 6 7 2 4 3 2 6 6 6 8 9 7 8 11 12 13 15 15 9 5 5 5 5 7 10 11 11 11 12 12 12 13 13 13 14 14 14 15 15 15 16 16 16 15 15
4 5 9 7 6 9 14 11 10 10 9 9 8 8 8 7 8 7 6 7 1 4 1 1 4 4 5 7 9 7 8 10 11 12 14 15 13 8 6 6 5 4 5 6 4 6 9 11 11 12 12 13 13 14 13 14 15 15 16 15 15 15 14
1 4 6 6 5 8 12 12 11 10 10 12 10 9 7 7 9 8 6 8 3 5 2 2 3 3 3 5 7 8 7 7 9 12 13 13 13 10 8 7 8 7 6 4 2 3 5 7 8 10 11 11 12 13 13 13 14 14 13 12 12 12 12
7 6 7 9 9 9 9 9 9 7 8 11 10 8 5 5 10 10 9 8 3 5 3 5 6 5 5 5 6 6 6 6 8 10 12 12 11 10 8 8 8 8 8 7 7 5 4 4 4 4 6 8 9 11 12 12 12 12 12 11 9 9 9
8 7 6 6 8 10 8 5 5 6 9 10 8 6 5 6 8 10 10 6 4 7 6 7 8 8 7 7 7 6 5 6 7 8 10 11 10 10 11 10 8 8 8 7 7 6 6 7 7 6 5 5 7 8 8 9 10 12 13 12 11 12 12
1 2 2 1 3 8 8 6 6 8 9 9 8 8 8 7 7 8 10 8 3 7 10 9 10 10 8 8 9 7 6 6 6 6 7 8 9 9 11 11 10 9 8 8 8 7 7 8 10 11 11 11 11 11 9 8 9 12 13 13 14 15 17
6 5 5 3 3 6 6 7 7 7 8 9 11 9 6 5 7 7 8 10 9 7 11 11 10 10 8 7 8 8 7 7 6 6 7 7 8 8 9 9 9 8 7 7 8 8 7 8 9 10 12 12 12 13 12 12 13 13 14 15 15 16 19
8 6 6 6 7 7 6 6 5 5 7 8 11 8 2 2 5 3 1 6 6 5 11 11 9 9 8 6 6 7 7 7 8 8 9 9 10 10 10 9 7 6 6 5 5 6 6 7 8 8 11 12 10 11 14 16 17 16 16 18 17 17 20
9 8 6 6 8 10 9 9 8 5 5 4 3 1 5 3 1 2 3 5 6 6 8 10 9 8 8 7 6 6 7 8 8 9 9 10 10 10 10 8 6 5 6 5 5 4 4 5 5 6 9 11 12 14 15 17 17 16 16 19 20 20 22
8 7 6 6 8 11 13 12 11 8 6 6 6 6 7 4 3 4 4 8 9 6 7 9 8 8 8 8 8 6 6 7 8 8 9 9 9 9 8 8 8 7 6 5 5 5 4 5 5 5 7 9 12 13 12 11 13 14 15 17 18 20 22
6 6 3 5 7 9 13 14 13 11 8 7 8 9 8 7 5 2 4 5 5 5 8 9 8 8 8 8 9 8 6 6 7 7 8 10 9 8 8 7 8 9 7 6 6 5 6 8 7 5 6 6 7 8 8 8 11 13 14 14 15 16 18
5 4 3 1 6 7 7 10 10 9 8 8 9 9 10 10 8 3 1 2 4 7 8 8 8 8 8 8 8 8 7 7 7 7 8 10 10 10 9 8 8 8 8 8 8 8 8 9 8 7 6 6 5 4 4 5 7 9 10 12 14 14 15
3 1 6 5 5 6 4 5 6 7 7 9 10 11 12 10 8 4 3 3 5 8 7 8 9 8 8 8 7 7 8 7 7 8 8 9 10 9 8 8 8 8 9 10 10 11 10 10 10 10 9 9 9 8 7 7 6 6 6 7 8 8 9
1 3 5 4 4 5 5 4 6 6 4 6 10 13 14 11 9 8 6 5 6 6 6 8 8 7 8 9 7 7 7 6 6 7 7 7 9 8 7 8 10 10 10 11 12 12 11 10 11 12 12 12 12 12 12 13 13 12 12 13 12 10 10
1 1 2 2 3 4 4 4 7 6 2 2 5 10 14 12 10 9 8 6 5 5 9 11 8 8 10 9 6 6 6 5 6 6 6 7 8 8 7 9 10 10 10 12 13 12 11 11 11 13 14 14 15 16 16 17 18 17 18 18 16 14 14
2 3 1 1 1 4 4 3 6 6 4 5 4 5 10 11 9 8 7 6 5 5 9 10 9 9 10 7 5 6 6 5 6 7 7 8 10 10 9 9 10 11 11 13 14 13 12 12 13 16 18 19 20 20 19 20 20 19 19 19 18 17 15
2 4 4 2 4 4 3 4 5 5 4 6 6 1 6 9 8 6 5 4 5 5 7 9 9 9 7 5 4 5 6 7 8 9 9 9 10 11 10 10 11 12 13 14 15 16 15 14 14 19 23 24 24 22 21 21 21 19 18 17 17 17 16
4 5 6 5 4 1 4 5 6 6 3 3 5 2 4 8 8 5 4 3 3 4 6 8 8 6 5 5 6 6 7 8 9 9 10 10 11 11 10 10 11 12 15 16 17 17 17 14 13 16 18 19 19 17 16 17 19 19 17 15 16 17 16
5 6 5 3 2 3 6 6 7 7 3 1 5 4 2 6 7 4 3 2 3 3 4 6 4 2 1 4 7 7 8 9 10 11 10 10 11 11 10 11 12 13 15 15 16 16 15 13 11 10 11 12 13 13 11 11 14 15 14 13 14 14 13
5 6 5 3 3 4 5 7 7 5 2 3 3 0 2 5 6 4 3 2 3 2 3 4 2 2 3 7 9 8 8 8 9 10 10 9 10 11 12 12 12 12 12 12 13 14 13 12 11 10 9 11 11 11 11 10 12 13 12 11 12 11 9
2 4 4 3 4 4 7 8 5 3 2 2 1 2 1 3 5 4 3 2 2 3 4 3 3 5 8 9 9 9 8 7 8 10 11 9 9 10 12 12 12 11 11 11 12 13 12 11 11 10 10 12 11 11 12 12 11 11 11 11 11 11 9
1 4 3 2 3 4 9 8 3 2 3 2 3 2 2 3 3 2 2 2 2 1 4 5 6 8 9 7 7 8 7 7 8 10 11 11 10 10 11 11 12 12 11 11 11 11 11 10 10 10 11 12 12 11 12 11 10 10 10 10 10 9 8
2 2 3 2 3 5 9 7 4 5 5 4 3 3 4 5 4 1 0 1 1 1 2 5 7 9 9 7 8 8 7 7 8 8 9 10 11 12 12 12 12 12 11 10 9 10 10 9 9 9 10 12 12 12 11 10 9 10 10 9 10 9 7
3 3 5 5 4 4 5 5 6 5 4 3 4 4 4 5 5 4 3 1 1 0 1 4 7 7 7 8 9 9 7 7 8 8 9 10 11 12 13 12 12 12 11 10 10 9 9 8 8 8 9 11 12 11 10 9 9 9 9 8 9 8 7
4 4 4 4 4 5 5 4 4 4 4 4 4 5 5 6 5 4 4 3 2 1 0 2 4 5 7 9 9 9 8 8 8 9 9 10 11 12 14 13 12 12 11 11 10 10 9 8 8 8 9 10 11 11 9 9 8 8 8 8 8 7 7
3 3 5 5 5 5 4 4 4 3 4 4 5 5 5 5 5 5 5 4 2 1 1 2 1 3 6 8 8 8 8 8 9 9 9 10 10 12 13 14 13 12 11 11 10 10 9 8 8 9 9 9 10 10 9 8 8 8 7 7 6 6 6
2 4 6 6 4 4 3 2 3 4 4 5 5 4 4 4 5 5 4 3 2 1 1 2 2 3 6 7 8 8 8 8 9 10 10 10 10 11 13 13 12 11 11 11 11 10 10 9 8 9 9 8 8 7 7 7 7 7 6 6 5 5 4
2 4 6 5 4 5 5 4 4 5 4 4 5 4 4 5 6 5 4 3 3 2 2 0 2 4 5 7 8 8 8 8 9 10 10 10 11 11 12 12 11 11 12 12 11 11 9 9 8 8 7 7 6 6 5 5 5 6 6 5 5 4 4
2 3 6 5 2 2 5 6 6 6 4 4 4 5 5 6 6 5 4 4 3 2 2 0 3 4 5 6 8 8 8 8 10 11 11 11 11 11 12 11 10 10 11 12 12 11 10 9 8 7 6 6 5 5 5 5 5 5 5 5 4 4 3
2 5 5 4 2 1 4 6 5 5 4 3 4 5 5 5 6 5 5 5 4 2 1 1 2 3 4 6 8 8 8 8 10 11 12 13 13 13 12 11 10 10 10 11 12 12 11 9 8 7 6 6 5 5 5 5 5 5 4 3 4 4 4
2 3 4 3 1 1 5 5 5 4 3 2 3 4 4 4 5 5 5 5 5 4 2 0 2 3 4 6 7 8 8 8 9 11 13 13 13 13 12 11 11 11 11 11 12 13 12 10 9 8 7 6 6 5 5 5 5 4 3 3 3 3 4
1 2 4 3 2 3 5 4 4 4 3 2 3 4 4 4 4 4 5 5 5 5 3 2 1 1 3 4 6 7 8 8 9 11 12 12 13 13 13 12 12 12 12 11 11 12 12 11 10 9 8 7 6 6 6 5 5 4 3 3 3 3 3

ECMWFFLT2_925_spd_102.txt.gz
Wind_Speed
12 15 14 11 9 5 4 7 9 7 5 4 5 3 8 8 5 3 4 4 4 4 3 2 2 5 4 6 13 15 15 17 16 14 13 11 11 11 10 11 12 14 18 20 21 23 22 21 22 21 23 24 24 25 24 23 22 21 21 20 19 19 18
11 14 14 13 13 8 3 5 7 7 5 3 4 4 5 7 5 3 4 4 4 3 2 4 5 1 4 6 12 15 15 17 17 15 13 12 11 11 10 9 11 13 17 19 20 22 23 23 22 21 24 25 23 24 24 23 23 22 21 20 19 19 18
10 11 10 11 13 14 8 4 3 6 5 3 3 3 4 5 4 2 3 5 3 2 2 5 5 3 7 10 12 15 16 16 16 15 15 14 11 7 5 4 5 9 16 19 20 22 22 23 23 21 23 24 21 22 23 23 22 22 21 20 19 19 18
8 9 8 8 10 12 10 6 4 6 5 3 3 3 4 4 1 1 0 3 2 3 3 7 6 7 13 14 13 15 17 17 16 15 14 12 7 3 2 4 6 10 16 20 20 21 22 22 23 23 23 23 21 20 21 21 21 21 21 19 19 18 17
6 7 8 8 9 10 9 7 7 7 6 5 5 5 5 3 2 2 2 0 1 3 2 7 12 13 11 12 14 13 14 16 15 15 14 10 8 7 6 6 5 8 14 22 22 20 20 20 21 22 21 21 21 20 20 20 20 21 20 19 20 18 17
6 7 9 10 12 10 10 9 8 7 6 8 7 6 6 5 3 3 3 1 1 2 2 2 9 11 4 9 12 12 12 14 14 14 13 9 8 9 6 4 4 2 6 11 15 12 13 16 18 20 20 19 19 18 19 19 18 19 18 19 21 20 18
9 12 8 13 14 14 13 12 10 8 6 7 7 6 5 5 4 4 4 1 2 1 4 1 1 5 5 4 8 10 11 12 13 12 11 7 5 6 5 6 6 3 1 5 12 7 5 8 11 8 7 11 14 14 16 16 15 16 17 17 19 20 18
10 16 11 12 14 14 13 12 12 10 9 9 8 6 4 3 3 3 0 0 1 1 1 3 6 6 1 3 7 10 11 10 11 12 10 7 8 11 9 5 2 3 7 11 14 9 7 14 16 7 1 1 8 12 14 14 11 11 14 15 16 17 17
6 8 8 9 12 9 9 9 12 13 13 13 11 9 3 3 3 3 2 1 3 2 1 6 10 6 6 4 5 8 9 9 11 12 10 8 10 11 9 7 3 4 9 10 11 10 12 17 19 15 10 7 8 13 14 14 12 11 12 14 16 16 16
6 4 3 3 4 7 8 11 13 16 15 14 12 9 5 4 4 5 3 3 7 7 5 8 11 6 2 4 3 5 8 10 10 11 11 10 11 10 9 9 5 5 7 9 11 10 12 17 17 16 17 15 13 14 13 12 14 16 13 13 15 16 16
8 7 8 11 11 7 9 12 15 13 15 14 11 9 6 3 3 3 1 6 10 8 8 9 8 7 6 2 3 4 5 10 11 10 11 12 11 9 9 9 6 5 6 5 7 7 9 14 15 13 16 17 15 14 13 11 13 16 15 13 14 15 16
12 13 13 15 15 12 8 9 14 15 12 14 12 13 7 1 1 2 3 9 11 6 8 10 5 2 6 4 2 4 3 7 10 11 13 15 14 11 12 12 10 9 8 5 4 4 5 8 11 12 13 15 15 13 12 11 11 14 14 13 12 13 14
12 13 14 15 14 12 13 11 14 16 14 12 14 16 12 6 2 6 9 13 13 5 6 11 7 5 5 5 3 1 2 4 8 11 14 16 16 15 15 15 14 12 11 9 7 6 5 4 5 6 8 12 14 12 11 12 11 12 13 12 11 11 12
11 12 13 16 14 12 16 16 13 13 15 15 16 16 15 13 6 14 18 16 14 7 5 10 10 9 8 5 4 4 5 2 3 9 13 14 15 16 16 15 14 13 12 12 12 11 9 6 4 3 3 6 9 7 8 10 9 9 10 12 13 12 12
9 12 13 14 16 16 16 13 8 8 9 10 12 11 10 10 5 13 20 16 12 6 5 8 9 9 9 6 7 7 2 4 3 2 7 9 9 11 13 12 12 12 12 11 12 11 10 8 7 5 3 3 4 4 5 5 5 5 5 7 9 10 10
8 9 7 9 11 10 5 8 15 17 15 15 14 9 6 7 4 7 14 11 7 5 7 8 7 8 8 7 7 6 5 4 4 4 7 7 6 6 7 9 11 10 11 11 11 11 11 9 7 5 4 3 2 2 5 5 6 6 6 6 7 8 9
7 6 7 14 11 2 5 9 13 14 13 13 15 15 17 17 10 2 5 6 7 7 7 7 7 7 6 6 5 5 8 9 6 7 9 5 2 6 8 9 10 10 10 11 11 12 13 12 11 9 9 11 12 9 5 3 4 4 4 5 6 6 7
7 7 4 6 5 1 3 6 8 10 13 15 15 15 17 17 14 9 6 5 5 6 7 8 9 8 7 8 9 8 9 9 7 8 6 1 2 9 12 11 11 13 14 14 14 14 14 14 13 13 13 14 14 14 12 9 7 6 5 2 1 2 4
4 5 5 2 1 1 2 5 7 6 10 13 14 16 17 16 14 11 8 5 5 8 11 11 10 9 9 11 11 10 10 9 7 5 5 6 9 11 12 11 12 14 15 16 15 14 13 13 12 11 12 12 13 14 13 12 12 11 10 10 7 3 1
4 2 2 2 1 2 2 5 5 4 6 10 12 13 13 13 12 10 7 4 4 11 12 8 8 11 12 12 11 9 9 9 8 7 8 10 11 11 12 13 13 15 16 15 14 12 11 11 11 11 11 11 13 14 14 15 16 16 16 16 14 12 9
4 1 2 1 1 2 2 3 5 3 3 6 9 7 8 10 9 7 6 6 4 8 9 7 8 12 13 12 10 10 11 11 11 12 13 13 13 13 14 16 17 18 18 16 14 12 11 12 12 12 11 11 13 15 15 16 18 19 21 20 18 17 15
2 0 2 3 3 2 1 2 5 5 5 3 7 7 7 9 7 7 7 6 8 3 5 7 9 11 10 9 8 9 12 13 13 14 15 15 15 14 15 17 18 19 20 19 17 15 13 13 13 12 12 13 15 16 16 16 17 19 21 20 18 18 17
2 1 1 2 2 2 2 4 5 4 5 5 2 3 6 7 6 8 8 3 4 5 3 2 4 6 7 6 4 5 9 10 11 11 12 14 15 14 15 16 16 18 20 21 20 18 16 14 12 13 13 14 15 15 15 15 15 16 18 18 19 19 17
3 3 2 0 1 2 3 6 6 5 5 7 6 3 4 6 7 9 7 5 5 4 4 5 5 3 3 5 3 3 7 10 11 11 11 12 14 15 16 16 16 16 16 16 17 17 16 14 12 11 12 12 13 14 14 14 14 13 15 16 17 16 15
3 4 3 2 0 4 7 8 8 7 6 6 2 3 2 4 6 9 9 7 5 4 5 5 2 1 3 6 6 6 7 9 11 12 12 13 14 15 16 15 13 13 13 13 15 15 14 12 10 10 10 12 14 14 14 14 13 12 12 13 13 12 12
1 2 3 3 1 4 8 8 8 9 5 0 3 3 2 4 6 9 9 7 5 4 5 5 4 6 8 9 8 8 8 8 10 12 13 13 14 15 14 13 13 13 13 13 14 13 12 11 10 10 10 12 13 14 14 13 12 11 10 9 10 10 10
2 2 3 3 1 3 8 7 5 6 4 4 4 2 4 6 7 7 8 6 5 6 6 8 9 10 11 11 9 9 8 7 10 13 12 10 12 14 13 13 13 13 13 12 12 12 11 11 11 11 10 11 11 12 12 12 11 11 9 8 9 9 8
2 1 2 3 2 3 6 3 3 6 6 5 3 3 6 7 6 6 6 6 6 6 7 8 10 9 10 10 9 9 7 5 8 13 12 11 12 13 12 12 13 12 11 12 12 12 11 11 11 10 10 10 11 11 11 10 9 9 9 8 8 8 7
3 3 4 5 4 5 7 7 7 7 8 7 7 7 7 6 6 5 5 6 7 6 6 7 8 8 8 8 7 7 8 7 8 10 12 12 13 13 13 14 14 12 11 11 11 12 11 11 10 10 10 10 10 10 9 8 8 7 8 8 8 8 7
8 7 6 6 7 7 7 8 8 7 8 9 9 9 8 7 7 6 5 6 7 6 5 5 5 5 5 6 6 6 7 8 9 9 11 12 12 13 13 13 13 11 10 10 11 11 11 11 10 10 9 9 9 9 7 7 7 7 7 8 8 6 6
7 6 6 7 8 7 7 8 7 7 8 8 7 7 7 7 7 7 7 6 6 6 6 5 5 4 2 3 5 5 5 6 7 7 9 11 12 13 13 11 10 10 10 10 11 11 10 10 10 10 9 9 8 7 7 7 6 6 5 5 6 6 5
5 6 8 8 7 7 7 7 7 6 7 7 7 7 7 7 7 8 8 7 6 6 6 6 6 6 4 3 4 5 5 5 4 5 7 8 10 13 12 11 10 10 10 10 11 10 10 10 10 9 9 8 7 6 6 6 5 4 3 2 3 4 5
6 8 9 7 6 7 7 8 8 7 6 6 6 7 7 8 8 7 8 9 8 7 7 6 5 7 7 6 5 5 6 6 5 6 6 7 10 11 10 9 9 10 11 11 10 10 10 9 9 9 8 8 7 6 5 5 4 4 3 2 2 3 4
4 7 8 5 4 5 7 8 7 6 6 7 7 7 7 8 7 7 7 9 8 9 9 8 7 7 6 5 5 5 4 6 7 7 5 6 8 9 9 9 9 10 11 11 10 10 10 9 9 8 7 7 7 6 5 4 3 4 3 2 3 4 5
6 8 7 4 3 6 8 8 7 6 6 6 6 6 6 6 7 6 7 7 7 7 8 9 9 7 4 6 9 7 4 5 7 7 6 6 7 8 9 10 10 10 10 10 11 11 10 10 10 9 8 7 7 6 6 5 4 4 2 1 2 4 5
8 8 6 4 5 8 9 7 6 6 4 5 6 6 6 6 7 7 7 6 6 6 6 8 9 8 6 6 7 7 6 5 5 4 4 6 7 9 9 9 10 11 10 10 10 10 10 10 10 9 8 8 7 7 6 5 4 4 2 1 1 4 4
7 7 7 6 7 9 8 6 7 6 3 4 6 7 7 7 7 6 6 6 6 6 5 6 8 8 8 7 6 4 5 6 4 2 3 4 5 7 8 9 10 10 10 10 10 9 9 10 9 9 9 8 7 7 6 5 4 4 2 1 3 5 5

ECMWFFLT2_925_spd_105.txt.gz
Wind_Speed
9 9 7 7 6 3 2 4 4 5 5 8 4 2 3 2 1 1 1 2 1 1 5 5 3 4 2 5 10 13 13 14 14 12 11 10 9 9 9 9 8 10 16 18 21 24 22 23 24 25 30 33 31 30 30 28 25 25 26 25 25 24 21
8 7 6 8 4 5 3 4 5 4 3 5 3 3 2 2 1 0 2 2 1 1 3 3 3 4 3 2 6 12 13 14 15 13 12 12 10 8 9 10 10 11 15 17 20 23 24 25 24 26 31 33 32 31 30 29 26 25 25 24 24 24 22
8 6 3 7 6 4 5 3 3 4 3 2 2 2 3 3 2 0 3 3 2 2 3 3 4 6 5 3 4 8 12 13 13 12 12 12 10 7 7 7 6 9 14 18 22 24 24 24 24 27 31 30 31 30 29 29 26 25 25 23 23 23 22
6 6 2 2 5 7 6 3 1 3 4 3 2 1 2 3 2 1 1 2 2 3 4 4 7 7 6 5 4 4 9 12 11 10 11 12 9 6 6 5 4 2 5 8 16 22 25 25 25 29 31 29 30 30 28 28 25 24 25 23 22 23 23
1 5 3 4 5 4 4 2 2 2 3 3 3 1 2 3 3 3 2 1 4 3 3 5 7 6 5 6 4 2 3 8 10 11 11 10 4 5 4 5 4 5 9 10 8 7 11 17 21 25 29 29 29 29 28 28 26 24 25 24 23 23 22
3 1 2 4 5 5 4 3 3 3 3 4 3 1 3 3 4 4 4 2 4 3 1 2 4 5 5 5 4 2 2 3 9 10 8 7 8 7 5 7 6 4 10 12 11 8 7 14 17 14 19 27 28 28 28 27 26 25 24 25 24 23 23
6 8 10 9 8 7 6 5 4 4 3 5 4 3 5 4 4 4 2 1 2 1 0 2 3 3 2 2 2 1 2 2 2 5 9 10 10 9 8 8 8 8 13 14 13 11 11 17 19 11 12 21 24 25 29 27 26 27 25 25 25 24 23
6 9 9 9 9 7 3 3 5 6 4 4 5 4 3 3 4 4 3 2 3 2 3 4 5 3 2 4 4 3 4 6 6 4 6 9 9 8 8 9 9 12 16 16 14 15 15 17 19 13 12 19 20 22 28 27 25 28 26 25 27 26 24
5 6 6 6 4 3 4 3 5 8 9 8 6 4 2 2 4 7 6 2 2 2 2 2 4 3 4 5 4 6 6 7 7 3 2 4 8 8 8 10 10 11 13 14 15 17 17 18 21 17 15 18 18 18 24 25 23 25 22 23 29 29 25
2 2 2 3 3 3 6 7 6 8 11 10 7 3 2 1 4 5 4 3 3 4 3 2 3 2 4 5 4 6 7 8 9 4 2 1 5 8 9 9 10 10 10 12 15 17 17 17 20 20 19 20 18 16 21 23 22 21 19 20 26 29 25
3 3 4 6 6 5 7 11 12 11 12 12 7 1 1 3 2 2 1 8 9 5 4 5 4 4 5 5 3 4 7 8 9 7 3 3 2 6 9 8 9 10 10 11 14 15 16 16 16 16 17 18 18 16 18 21 22 20 19 18 20 24 24
5 6 8 10 9 7 9 11 12 11 10 8 7 4 4 5 7 4 2 11 11 5 5 6 5 4 6 6 5 4 5 6 7 7 7 4 3 4 5 5 6 10 11 12 14 16 18 19 18 16 15 15 15 15 16 18 19 19 20 18 16 18 21
8 8 8 9 9 9 9 8 12 15 16 14 7 4 3 2 8 8 9 12 11 8 7 5 3 6 8 7 6 5 5 6 7 9 10 7 6 6 5 5 5 5 6 7 12 17 19 19 18 17 17 15 12 12 12 11 11 12 17 19 17 16 15
9 10 9 8 7 9 10 13 17 15 15 18 17 14 11 7 8 11 11 12 9 4 4 6 6 8 10 9 7 7 6 6 7 9 10 9 7 6 5 5 6 6 7 8 9 9 10 11 12 13 15 13 10 10 9 8 7 6 10 13 12 8 4
8 9 9 6 6 10 14 17 17 16 16 18 17 15 12 9 10 12 12 10 6 4 4 7 7 8 11 10 8 6 5 5 7 8 8 9 9 8 8 7 6 6 7 9 11 11 11 12 12 11 10 7 6 9 10 8 7 3 3 5 4 2 4
6 9 7 7 7 9 14 15 16 15 14 13 12 12 11 8 7 8 9 7 4 4 6 7 7 8 10 9 6 5 5 6 8 8 6 6 7 8 9 8 7 7 8 9 10 11 12 12 11 9 7 5 4 6 7 6 5 2 1 2 3 1 5
5 8 8 10 7 6 8 9 10 11 11 11 12 12 14 12 7 4 3 3 3 3 5 9 10 11 10 8 5 5 6 8 9 8 6 6 6 7 8 9 8 9 9 10 13 15 15 15 14 13 11 10 9 7 5 4 3 4 5 5 3 1 3
4 8 7 7 5 5 2 5 5 8 10 13 14 12 13 13 7 3 3 5 6 7 8 11 12 10 10 9 8 7 7 8 8 6 5 5 7 7 9 9 9 11 13 14 16 17 17 16 16 16 15 14 13 10 8 6 4 5 7 8 8 7 6
2 5 5 4 3 2 2 4 4 6 7 10 13 12 13 11 6 4 7 10 11 10 9 10 11 10 10 10 10 9 8 7 6 3 3 5 7 7 9 9 9 13 16 17 17 17 17 16 16 16 15 13 12 11 9 8 7 6 7 9 10 9 7
1 3 4 2 2 1 3 4 6 6 5 5 8 9 11 10 5 3 7 10 10 9 9 8 9 10 9 9 7 7 7 6 2 2 5 8 8 8 9 9 9 12 16 18 18 18 17 17 17 16 15 13 12 12 11 10 10 9 9 10 10 10 8
2 2 2 1 2 1 4 5 4 6 5 4 5 5 6 7 5 4 6 8 7 7 7 6 7 10 10 9 7 8 9 8 5 6 7 7 7 11 14 14 12 13 15 16 17 17 16 17 17 17 17 16 15 15 14 13 13 12 12 13 13 12 11
2 4 2 2 1 1 2 4 8 7 6 6 5 4 3 5 5 4 6 7 7 6 4 3 5 7 8 6 4 8 11 10 8 10 11 11 11 11 13 15 15 15 16 15 15 14 14 14 14 14 15 16 17 17 16 15 15 15 16 15 15 14 14
3 5 3 0 2 3 4 6 9 6 7 9 7 3 2 4 4 4 7 7 6 5 3 3 5 6 5 2 1 3 6 6 7 8 11 14 14 12 13 17 17 17 17 16 15 14 15 14 14 14 15 16 17 17 16 16 16 17 16 15 14 15 14
3 5 3 1 1 2 5 7 7 4 7 9 7 2 1 2 2 4 6 8 6 4 3 3 4 4 4 4 3 3 6 8 8 9 11 14 13 11 14 17 17 16 16 15 14 14 14 14 14 13 14 15 16 15 14 15 15 15 14 14 14 14 15
3 3 3 2 1 2 5 7 7 2 5 6 4 2 3 2 3 4 6 8 6 4 3 3 3 3 4 6 6 6 8 9 9 10 14 16 15 14 15 16 15 16 16 15 14 13 13 14 13 12 13 14 16 16 14 14 13 13 12 13 12 12 12
1 0 2 2 0 3 4 6 7 2 4 3 2 3 3 3 4 5 6 7 6 4 4 4 5 5 5 6 7 9 10 9 9 12 15 16 15 14 14 15 16 17 16 15 15 14 14 14 13 13 14 15 15 15 14 13 11 11 11 12 12 12 11
2 1 1 3 0 3 5 4 3 3 3 4 4 3 3 5 6 6 6 6 6 6 6 6 6 7 6 5 5 8 10 10 11 15 16 15 14 14 15 16 15 15 15 14 15 15 14 14 14 14 14 14 14 14 13 11 10 10 10 10 11 11 11
2 2 2 2 2 2 2 1 3 3 2 4 5 5 4 5 5 5 5 6 6 6 7 7 7 7 7 5 4 6 9 9 10 14 17 16 15 16 16 16 15 15 16 16 16 16 15 14 14 14 15 16 15 14 12 10 10 10 9 9 9 8 8
2 3 3 3 3 1 5 5 5 5 5 5 6 7 5 5 5 4 4 6 6 5 5 6 5 5 6 6 4 4 8 8 8 12 16 17 16 16 17 17 16 17 17 17 16 15 14 14 14 14 15 16 14 12 10 9 9 9 9 9 9 7 7
4 5 4 4 4 5 7 7 7 7 8 7 7 7 5 4 5 5 5 6 5 4 4 5 4 4 4 4 3 4 7 8 8 10 13 15 17 19 19 18 16 17 17 16 15 14 13 13 13 12 13 13 13 11 9 8 9 10 9 9 7 6 5
5 4 4 6 6 6 6 8 8 8 8 7 6 6 5 5 5 5 6 6 5 5 5 5 5 4 4 5 5 5 5 7 9 10 10 13 18 21 19 16 16 17 17 15 13 14 13 12 11 11 11 11 11 10 8 9 9 8 8 9 8 7 7
4 5 6 7 7 6 6 6 6 6 7 6 6 6 6 6 6 6 6 6 6 5 5 5 5 4 4 5 6 6 5 6 8 10 11 14 17 19 18 17 18 18 16 14 13 13 14 12 10 10 9 8 8 9 9 8 7 5 5 4 4 5 6
5 6 7 7 7 7 7 7 6 5 6 6 6 6 6 7 7 7 8 9 7 6 6 5 5 5 4 5 6 6 5 6 9 11 13 14 15 16 16 17 19 18 16 15 13 12 12 11 10 9 8 7 6 7 7 6 5 4 3 2 2 4 6
4 5 6 7 7 6 5 6 7 6 7 7 8 7 7 7 7 7 7 9 10 10 10 8 7 5 5 6 7 7 6 8 10 13 15 14 13 14 16 17 17 17 16 14 12 12 10 10 9 9 8 7 6 5 5 5 5 5 3 4 5 6 6
4 5 6 6 7 6 5 7 7 7 7 8 8 7 7 7 7 7 7 7 8 9 10 11 9 6 6 8 9 8 7 9 9 10 11 12 11 12 15 16 16 16 15 13 12 12 11 10 9 8 8 8 7 6 5 4 4 6 4 3 3 3 3
6 6 7 7 8 7 7 7 7 7 7 8 7 7 7 7 8 9 7 7 7 7 8 12 14 9 9 11 10 7 8 8 7 5 6 8 9 10 13 15 15 15 15 14 13 12 10 10 9 8 8 7 7 6 6 4 5 6 3 1 1 4 3
7 7 7 8 9 8 7 8 7 8 10 10 8 7 7 7 9 10 8 7 10 10 7 9 14 15 12 10 9 9 9 8 6 4 4 3 6 9 10 13 15 15 14 14 13 12 11 11 10 9 9 8 7 6 6 5 5 5 1 1 5 8 5

ECMWFFLT2_925_spd_111.txt.gz
Wind_Speed
2 5 6 8 8 5 1 0 2 3 2 6 5 1 1 3 2 1 2 2 2 1 2 3 3 4 7 10 11 11 11 10 9 8 8 8 8 9 10 12 12 14 20 23 25 27 28 28 29 30 31 32 33 33 32 32 32 31 31 30 29 27 26
6 2 6 5 6 5 5 2 5 2 2 3 4 2 2 2 1 1 1 3 2 1 1 3 6 6 7 9 11 11 11 11 11 9 9 9 9 9 10 11 13 15 19 22 24 27 29 31 31 32 33 34 34 34 34 33 32 32 32 31 30 29 27
8 4 6 2 6 3 2 4 4 3 2 1 2 2 1 1 1 1 1 3 3 4 3 4 8 10 10 9 10 11 12 12 11 10 10 10 9 8 8 9 10 12 17 22 25 27 29 31 32 34 35 34 34 35 35 35 34 34 34 32 30 29 29
6 4 4 2 4 6 3 1 2 2 2 3 2 2 3 3 2 2 1 2 3 4 5 7 10 12 11 10 10 11 12 13 11 10 9 9 9 8 7 8 9 11 17 23 26 28 30 31 32 32 33 33 34 34 34 34 34 34 33 31 30 30 29
3 1 1 2 3 3 3 2 0 1 0 1 2 1 1 3 3 2 1 1 4 4 4 8 10 10 10 10 10 10 11 11 8 7 7 7 7 7 7 8 9 12 19 24 27 28 30 31 31 31 32 33 33 33 34 34 32 31 31 31 30 30 29
2 3 3 2 1 3 3 2 0 2 2 2 2 1 2 2 3 3 3 2 4 4 1 5 7 7 6 8 9 8 9 10 9 7 7 7 7 7 7 7 5 6 9 15 21 26 28 29 29 30 31 33 32 32 32 32 31 31 31 31 30 30 29
4 6 7 5 3 2 3 3 2 1 1 3 4 3 3 1 2 1 2 1 4 4 3 2 5 5 5 7 8 9 9 9 9 7 6 6 7 7 7 7 6 8 9 4 3 11 17 24 28 31 31 30 31 32 32 31 31 31 32 32 31 30 29
5 6 5 3 5 5 3 3 4 3 3 1 3 5 3 3 2 1 1 1 3 3 5 2 2 4 6 4 4 8 9 8 9 9 6 5 6 7 9 7 7 11 15 11 5 2 1 6 12 20 28 32 31 30 31 32 32 32 32 31 31 30 29
6 7 5 5 7 6 3 3 5 4 5 4 1 1 3 2 2 3 4 3 3 3 5 5 5 5 6 4 2 4 7 8 9 9 7 6 6 8 9 9 9 10 12 12 10 8 6 4 4 3 9 21 30 32 32 32 32 32 32 31 30 30 29
2 3 3 3 5 4 3 5 7 7 7 5 2 1 3 1 2 2 4 3 1 2 5 6 6 5 5 4 4 2 3 6 7 7 7 7 7 8 10 11 11 12 12 13 14 16 15 13 10 6 7 5 11 18 22 25 25 24 25 27 30 30 29
4 4 4 5 3 3 4 7 9 9 9 6 2 4 3 2 2 1 3 4 4 2 3 5 4 5 4 3 4 3 2 3 3 4 5 5 5 6 8 8 8 9 12 15 18 20 20 18 18 18 12 7 6 7 8 14 20 21 19 19 24 27 28
4 6 5 4 3 4 4 7 10 11 11 8 5 3 2 3 3 2 4 4 5 2 2 4 3 4 4 3 4 4 2 3 3 3 4 4 4 4 5 5 5 6 7 10 14 18 20 21 21 22 22 19 16 14 11 12 17 22 21 18 19 21 23
3 5 3 1 5 3 2 6 9 10 11 9 6 2 4 3 4 3 2 5 6 2 3 4 4 4 5 4 4 3 3 3 3 3 3 4 4 4 4 4 4 4 4 5 10 13 17 21 22 23 25 25 25 27 26 22 21 23 23 23 23 22 22
2 3 1 3 5 3 3 6 8 8 8 7 4 5 4 4 5 3 5 10 8 4 4 4 4 4 4 4 5 4 5 5 4 4 3 3 3 3 4 4 3 4 3 4 7 11 15 19 21 23 26 27 28 29 29 30 29 25 23 25 25 24 24
1 3 2 0 3 4 4 6 9 9 8 7 6 6 6 6 7 7 8 9 7 5 5 6 6 5 5 6 6 5 4 4 5 5 4 3 3 3 4 4 4 4 4 5 6 9 12 15 18 21 24 27 29 27 25 28 31 27 24 24 24 23 23
2 3 3 3 1 3 5 6 9 10 7 5 5 6 5 5 4 4 6 5 3 4 5 6 6 6 7 7 6 5 4 4 4 5 5 5 4 4 4 4 5 5 4 5 6 8 11 13 15 17 21 24 27 28 26 27 29 27 24 23 22 20 19
3 4 3 2 1 3 4 3 4 4 2 0 2 5 7 6 3 3 3 3 2 4 6 6 7 7 7 6 6 5 5 4 4 4 5 6 5 5 5 5 6 6 7 9 10 10 12 14 15 16 19 21 22 24 25 24 24 25 24 22 20 20 18
3 6 4 4 2 1 4 3 1 2 2 3 2 4 6 6 3 3 3 6 6 7 8 7 7 8 6 6 6 6 4 4 5 5 6 6 6 7 7 7 7 7 10 14 16 15 15 17 16 15 17 17 16 17 19 19 18 19 20 20 19 19 19
2 3 5 4 2 5 5 3 1 3 5 7 7 6 6 5 4 4 4 5 6 7 8 7 6 7 7 7 8 8 6 5 6 7 7 7 7 7 7 7 7 9 11 13 15 16 17 19 20 19 18 18 17 17 17 18 17 16 17 16 15 16 16
0 2 3 1 5 5 4 3 2 1 3 5 6 4 5 5 4 2 5 1 3 3 8 7 5 5 7 8 8 8 7 6 6 7 7 7 7 7 7 8 10 12 14 14 14 16 17 19 21 22 21 20 19 18 17 17 16 15 14 14 12 12 12
1 2 1 2 3 5 4 3 2 2 3 2 3 2 2 4 2 1 3 4 3 3 8 8 3 1 4 7 6 7 8 7 6 8 8 8 9 10 11 13 15 17 17 15 15 16 17 18 18 19 19 20 20 19 18 16 14 12 11 11 11 10 8
2 4 1 1 2 3 5 5 5 3 2 3 4 4 2 4 2 1 3 6 5 4 5 4 2 1 3 4 3 5 7 6 6 7 9 11 12 13 15 17 17 18 18 16 16 17 19 19 18 18 19 20 21 21 19 18 16 14 12 11 11 10 8
2 4 3 2 3 4 5 6 7 4 0 3 4 5 3 5 5 3 3 5 6 5 4 3 2 3 4 2 1 2 4 5 6 5 6 10 13 13 15 18 17 17 18 17 15 17 19 19 17 18 19 20 21 21 19 18 18 16 15 14 12 11 9
2 3 2 2 3 3 4 6 5 3 1 2 5 3 4 5 5 4 3 4 4 3 3 2 4 4 3 3 3 3 4 5 7 7 6 8 12 14 15 18 19 17 17 16 15 14 15 15 16 17 18 19 20 19 18 18 17 17 16 14 13 12 11
3 4 2 2 4 4 5 5 4 2 1 4 4 3 5 5 6 4 4 4 3 1 1 0 2 3 3 4 5 5 5 5 6 9 8 8 11 15 14 15 18 19 18 17 16 14 13 14 15 17 19 20 20 19 18 18 17 15 14 13 12 12 11
3 3 2 1 3 4 4 3 2 3 2 0 3 5 3 5 6 5 4 4 3 2 1 1 2 5 5 7 6 5 6 5 5 8 9 9 10 12 12 14 17 19 19 18 16 14 13 14 15 16 19 21 20 19 19 17 15 14 13 12 11 11 11
3 2 2 1 2 4 2 2 1 2 3 4 4 2 3 4 5 5 4 3 3 3 2 2 5 8 8 7 5 5 6 6 5 7 9 9 9 10 12 14 16 19 19 18 17 15 15 15 15 16 19 19 19 19 17 15 14 13 12 12 11 12 12
3 2 2 3 4 5 3 2 3 3 3 4 3 3 3 3 4 4 3 3 3 4 5 6 7 7 7 6 5 4 5 5 6 6 8 10 10 11 14 15 18 21 21 19 18 17 15 14 14 15 17 18 17 16 15 13 12 12 11 11 11 11 11
3 4 5 5 4 4 3 3 4 3 1 1 3 4 4 3 4 4 4 4 4 5 6 7 6 6 6 6 5 4 4 4 5 6 7 10 11 12 14 15 17 20 20 20 19 17 15 14 13 13 15 16 16 14 12 11 11 11 11 10 10 10 10
1 2 2 2 2 4 5 3 1 4 4 1 2 4 4 3 3 4 4 5 5 5 6 6 5 5 5 5 5 5 4 3 4 5 7 8 11 13 14 15 16 18 19 19 19 18 16 14 13 13 13 14 14 12 9 9 9 9 9 9 9 9 9
2 0 2 4 2 4 8 9 5 5 7 3 1 3 3 3 4 4 4 5 6 6 6 6 6 6 6 6 5 4 4 4 3 5 6 7 9 12 13 13 13 15 16 16 16 16 15 13 12 11 11 11 11 9 7 7 6 5 6 6 7 7 7
2 2 1 3 3 6 9 8 7 2 7 5 3 3 4 4 5 5 5 6 5 4 5 6 7 7 6 6 6 4 4 4 4 6 8 8 9 11 12 11 10 11 13 13 13 13 12 11 10 10 10 9 9 8 7 6 5 4 5 5 4 5 5
2 1 2 3 4 6 7 1 7 3 6 7 5 5 6 7 7 7 7 7 6 5 5 6 8 8 6 6 7 6 4 4 6 7 9 11 11 12 12 11 11 12 13 12 11 11 11 9 9 9 9 9 8 7 7 6 5 5 5 4 3 3 4
2 3 4 5 5 4 4 6 5 3 4 8 8 7 6 7 7 8 8 9 9 9 7 6 9 9 5 6 8 7 5 7 9 10 12 13 12 12 12 11 11 12 12 11 11 11 10 9 8 8 8 8 7 5 4 3 3 4 4 3 2 1 2
5 7 7 6 5 5 4 6 5 2 3 9 9 7 6 6 6 8 9 8 8 9 9 9 11 9 7 8 10 7 5 8 11 13 14 15 13 12 12 12 12 11 11 10 10 10 10 8 7 7 6 5 4 3 2 2 1 2 4 4 2 1 2
3 5 8 6 5 6 6 6 6 5 6 9 9 7 6 6 7 9 9 8 8 7 7 10 13 12 12 12 12 10 8 9 12 13 14 15 15 14 13 12 12 12 11 10 9 9 9 8 6 6 5 3 3 2 2 2 0 1 1 3 1 2 3
4 6 6 5 6 7 6 4 4 4 8 11 8 7 8 9 11 13 11 8 10 11 9 9 12 15 16 16 15 14 12 11 12 13 13 12 13 13 12 12 11 10 10 9 8 7 7 6 5 6 5 3 2 3 1 3 2 2 2 2 1 2 3

ECMWFFLT2_925_spd_114.txt.gz
Wind_Speed
2 4 4 5 5 4 0 1 1 3 3 6 4 1 1 3 1 2 2 2 3 2 3 2 5 6 9 9 9 11 11 9 9 8 8 8 9 10 11 11 10 12 17 20 22 24 25 25 26 28 29 31 32 32 31 32 31 30 29 29 28 28 26
6 3 4 5 4 4 4 1 3 2 1 3 4 1 2 3 0 2 2 3 3 1 2 1 5 6 8 9 9 11 11 10 10 10 9 10 10 11 12 12 11 13 17 20 22 24 26 28 29 30 32 33 33 33 32 32 31 30 30 29 29 28 27
7 4 5 4 1 2 5 5 1 3 1 2 1 1 0 1 1 3 2 3 3 3 3 2 5 7 9 10 10 11 12 12 11 10 10 10 10 9 10 10 10 12 16 21 23 25 27 28 30 31 32 32 31 31 32 31 31 31 30 29 28 28 27
5 5 5 1 3 4 2 2 2 3 4 4 2 2 2 2 1 2 2 2 3 4 3 5 8 9 9 11 10 10 12 13 11 10 10 10 10 9 9 10 10 11 17 23 25 27 28 29 30 30 30 29 29 30 30 30 30 29 29 29 28 28 28
3 2 1 1 1 1 1 2 2 2 2 3 3 2 1 3 2 2 1 2 4 4 2 4 7 8 9 10 10 10 12 13 13 12 11 9 9 10 10 10 10 12 18 23 26 28 29 29 29 29 29 29 29 29 29 29 29 28 28 29 28 28 28
3 3 3 1 1 3 3 2 1 2 3 3 3 3 2 2 3 3 3 2 5 3 2 4 4 5 7 8 9 9 9 11 12 11 12 11 10 10 10 11 10 12 17 22 25 26 26 25 26 27 28 29 28 28 29 29 29 29 29 29 29 29 28
4 8 7 3 2 1 3 2 3 1 1 1 3 3 3 0 1 1 2 1 5 3 4 4 1 2 3 6 8 8 8 9 10 9 9 9 10 10 11 11 10 13 19 22 23 24 24 24 24 24 25 26 28 29 30 29 29 30 30 30 30 30 29
5 7 7 4 3 4 3 2 3 2 2 2 3 4 2 1 1 1 1 2 4 3 5 5 2 3 3 1 4 6 5 4 6 8 8 8 8 9 9 9 9 12 17 19 20 22 23 24 24 24 24 25 25 26 27 28 30 31 31 30 30 30 29
5 6 6 5 4 4 2 3 4 3 4 5 2 2 1 1 3 3 3 3 4 3 5 5 4 4 4 4 3 2 3 1 1 3 5 6 7 8 8 8 8 9 12 15 18 21 24 26 26 26 27 27 26 26 26 27 28 29 29 30 30 30 30
2 1 2 2 3 3 2 3 6 6 8 8 2 2 2 1 3 3 4 3 3 3 4 6 5 4 4 4 6 4 1 2 3 2 3 4 5 6 7 7 7 8 10 13 17 21 23 25 27 28 28 29 29 29 28 27 27 26 26 27 27 28 28
6 6 5 5 2 1 2 5 7 7 8 8 3 2 2 1 2 1 3 3 1 1 4 5 5 4 4 4 5 4 1 1 2 3 2 2 3 4 5 5 5 6 6 8 13 19 23 25 27 29 29 30 31 30 28 28 28 26 24 24 25 26 26
4 5 4 4 3 4 1 3 6 7 7 9 8 4 2 2 1 3 5 2 2 1 3 4 4 4 4 4 4 4 2 2 2 4 4 3 2 3 4 4 4 4 3 4 6 11 17 21 25 27 28 29 31 31 31 31 31 31 29 27 27 27 27
3 1 2 4 2 5 3 2 4 6 6 9 9 6 3 1 2 3 4 2 2 1 3 4 4 4 4 4 4 4 5 4 3 4 5 4 4 2 3 4 3 3 3 3 4 6 9 14 19 22 23 25 26 28 29 30 31 31 32 31 30 29 28
3 2 3 3 1 4 3 2 3 4 3 6 7 6 6 3 3 2 1 4 4 3 3 3 3 3 3 2 3 3 5 6 6 6 5 4 2 1 2 3 3 4 4 4 6 8 8 10 14 17 20 21 23 25 27 28 29 29 30 30 30 30 30
2 3 2 2 1 3 2 2 3 4 3 4 5 5 5 4 3 4 4 4 4 3 3 4 4 3 3 3 4 4 4 6 8 8 6 4 4 3 2 3 4 4 5 6 8 10 12 13 13 15 17 20 22 23 25 26 28 28 29 29 29 30 29
3 3 4 4 1 4 3 3 4 4 3 2 2 3 3 4 3 1 1 1 1 1 3 4 5 5 6 6 5 6 5 5 7 8 7 6 6 5 5 4 4 5 5 6 7 9 11 12 13 14 16 18 21 23 24 23 23 24 26 27 27 25 22
3 4 4 3 2 4 3 4 2 1 0 0 2 1 4 4 4 2 1 1 2 3 5 5 6 6 6 5 4 4 4 4 6 7 7 7 6 5 5 5 5 5 5 6 8 10 10 11 12 14 16 19 21 22 22 22 21 21 21 20 21 21 17
3 5 4 3 3 1 4 5 2 3 3 2 1 1 3 4 3 1 0 2 2 4 7 5 5 5 4 3 3 2 2 2 4 5 5 5 5 4 4 4 4 4 6 8 9 12 14 14 14 13 15 16 16 16 18 20 21 22 20 17 16 18 17
1 3 5 3 2 4 5 5 4 2 5 5 3 0 1 3 2 2 2 2 3 2 3 5 4 2 5 5 5 6 5 3 4 6 6 6 7 7 6 6 6 6 8 10 10 10 12 14 13 11 11 12 12 13 16 18 18 18 18 15 14 15 15
0 2 3 2 5 6 4 5 4 1 3 4 3 2 4 3 4 4 2 1 3 2 1 2 6 5 3 5 6 8 9 7 6 6 6 7 8 7 6 7 7 7 8 9 10 9 10 13 14 13 13 14 13 14 16 17 16 16 16 14 12 12 12
1 2 1 2 3 4 3 3 3 2 2 3 4 1 5 4 5 5 4 4 4 3 1 2 1 6 4 3 4 7 9 9 9 8 8 9 9 8 9 9 9 8 9 9 9 10 10 12 14 15 16 16 16 15 16 16 16 15 15 14 13 12 11
2 4 1 2 3 2 4 5 3 1 3 5 6 3 4 5 5 6 6 7 5 3 2 2 3 3 5 2 4 6 8 8 9 10 10 11 11 11 11 11 11 12 11 11 12 13 14 13 11 12 14 16 19 19 19 20 19 17 15 14 14 12 11
2 4 2 2 2 3 6 6 5 2 3 5 6 4 4 5 6 7 6 7 7 4 2 1 3 1 4 1 2 3 7 8 9 9 9 11 13 14 14 14 14 15 15 15 15 16 16 13 10 11 13 16 18 17 16 18 19 18 17 16 14 13 11
3 4 2 2 3 3 4 5 5 3 3 6 7 2 5 5 5 6 6 6 6 4 2 3 3 1 3 4 1 3 6 8 9 10 9 10 13 14 14 15 15 15 16 17 17 17 16 12 10 12 15 18 20 18 18 18 18 16 15 16 17 16 14
3 4 2 2 4 4 5 5 5 4 3 5 4 3 6 4 5 4 4 5 4 3 3 2 1 1 2 6 6 5 6 8 10 11 12 14 15 15 15 15 16 17 17 17 18 17 15 13 12 14 18 21 22 21 22 22 21 18 18 18 18 17 17
2 3 2 1 4 4 4 3 3 3 3 2 3 5 3 3 6 4 3 4 4 3 3 3 2 3 6 8 8 6 7 7 8 9 12 14 14 16 17 16 17 17 16 16 18 17 16 15 15 17 21 24 24 23 23 21 18 18 19 18 18 19 19
2 2 2 1 2 3 2 3 1 2 3 4 4 1 2 2 5 4 3 3 4 4 4 5 6 8 8 8 8 7 7 7 7 9 10 11 11 13 16 17 17 17 16 17 18 18 17 17 18 19 22 24 24 24 23 19 16 18 19 18 17 18 19
3 3 1 3 4 4 2 2 3 3 4 4 4 3 1 1 4 4 3 2 3 5 7 8 9 9 8 8 8 7 6 6 7 8 10 10 11 12 14 15 16 17 17 18 18 18 18 19 19 21 23 23 23 22 20 16 15 16 16 15 15 16 17
3 5 5 4 3 3 3 3 3 3 4 3 1 4 3 3 3 4 4 3 3 6 9 9 8 7 6 7 6 6 6 6 6 8 10 12 12 12 13 14 15 16 17 18 18 18 18 18 19 20 21 22 21 19 16 15 15 15 15 15 16 17 17
1 2 3 1 1 3 3 2 2 1 4 5 4 2 1 4 4 4 5 5 5 6 8 8 7 5 6 6 6 6 6 6 7 10 12 13 14 14 13 13 14 15 16 17 18 18 17 17 17 17 18 20 19 17 15 14 14 14 14 15 16 16 15
1 1 2 2 2 4 4 1 1 4 7 7 8 7 3 2 6 6 6 7 7 6 6 8 8 6 7 7 6 5 6 6 8 11 12 12 14 14 13 13 14 15 16 16 16 17 17 15 15 16 17 17 17 15 14 13 12 12 13 15 15 14 14
2 3 4 2 2 4 4 1 3 4 6 7 9 9 7 4 5 5 7 9 7 5 6 8 8 7 7 7 6 5 5 6 8 10 12 13 15 14 13 13 14 14 15 16 16 16 16 14 14 15 16 16 15 15 15 14 12 12 13 13 13 13 13
1 3 3 2 1 2 5 3 5 5 5 7 9 9 8 8 8 5 3 7 8 7 7 8 9 8 6 6 7 6 5 5 8 10 13 15 15 15 14 14 14 15 15 15 15 15 15 14 14 15 15 15 14 14 14 13 12 13 12 11 11 12 12
1 4 5 4 3 2 1 1 4 5 6 10 8 5 4 6 9 9 8 5 5 7 7 8 9 8 5 7 8 7 6 7 9 11 13 14 14 14 15 15 15 16 16 15 15 15 14 13 14 14 14 13 13 13 12 11 11 12 13 11 11 11 11
5 6 7 6 5 4 3 4 4 5 6 8 6 4 2 5 6 4 6 7 4 7 6 7 10 8 6 9 11 8 7 10 12 12 13 13 12 12 12 13 14 14 14 13 13 13 12 12 12 12 12 12 12 13 12 10 9 10 11 11 11 9 8
2 4 7 6 4 5 6 6 6 7 7 7 6 5 3 3 5 8 7 4 3 5 8 8 11 12 11 12 12 10 9 11 13 12 12 12 12 10 10 11 12 12 12 11 11 11 10 9 9 10 10 10 10 11 12 12 11 9 9 9 8 6 5
2 4 6 5 4 6 7 4 4 6 9 10 7 5 6 6 7 12 10 2 1 7 10 9 11 15 16 15 14 14 12 12 13 14 13 11 10 9 9 9 10 10 10 10 9 9 8 7 7 8 9 10 9 10 11 13 13 13 12 11 9 7 5

ECMWFFLT2_925_spd_117.txt.gz
Wind_Speed
2 5 4 5 4 3 2 2 3 1 1 1 0 1 1 1 3 2 2 4 2 1 3 4 5 6 10 11 12 13 12 10 11 12 12 12 11 12 12 12 12 15 18 19 20 20 20 21 21 21 22 24 26 27 27 28 27 27 29 29 29 27 26
4 2 4 6 2 1 3 3 2 2 2 0 1 1 1 2 4 2 3 5 3 1 2 3 6 8 11 12 13 15 14 13 13 12 11 11 11 11 12 13 13 15 18 19 20 20 21 22 22 24 26 28 30 29 28 27 26 26 27 27 27 26 26
5 2 4 6 4 2 1 2 2 0 2 2 1 1 2 2 4 3 2 3 4 4 3 2 7 11 11 12 14 15 17 18 15 12 11 12 12 11 11 12 12 13 17 20 21 21 21 22 22 24 27 27 26 26 25 26 26 26 25 22 22 25 25
1 2 1 2 3 2 3 4 2 3 0 2 1 0 2 3 4 4 3 2 2 3 0 1 5 8 10 12 13 14 17 19 15 11 11 11 12 11 10 11 11 13 18 21 22 22 22 23 23 22 23 23 23 23 22 23 23 22 23 21 21 24 23
1 2 3 2 1 1 2 3 1 1 1 2 2 1 3 4 4 4 4 5 2 1 2 4 6 6 8 12 12 12 14 15 12 11 11 10 11 11 10 11 12 13 18 21 22 22 22 23 22 20 21 22 22 22 22 23 22 21 21 21 23 25 23
3 4 3 2 1 1 1 1 1 1 2 2 2 2 3 4 5 4 5 6 3 3 3 5 5 5 6 10 11 10 11 12 11 10 11 10 11 11 12 12 12 13 17 20 20 21 21 21 20 20 21 21 21 21 22 23 22 22 22 22 25 27 25
2 2 3 1 1 4 6 5 2 0 2 3 3 2 2 4 4 2 3 5 2 3 5 5 4 3 0 4 6 7 7 8 8 8 9 9 10 12 12 13 12 13 17 19 19 20 21 21 21 21 21 21 22 23 23 22 23 24 25 26 28 29 27
1 1 3 4 5 4 5 5 3 1 1 2 3 1 1 2 3 2 3 3 0 4 6 5 4 5 6 3 1 2 2 2 3 4 5 7 9 10 11 11 10 12 15 16 16 18 20 19 20 21 21 22 23 23 23 24 26 27 28 28 29 29 28
2 4 4 5 5 3 2 3 3 2 2 3 4 1 1 3 2 1 4 3 1 4 5 7 6 7 8 6 4 4 3 3 2 1 2 4 6 8 9 9 8 9 11 12 14 17 18 19 21 21 22 25 26 26 26 28 29 29 28 26 26 27 26
4 5 4 3 4 3 2 2 3 3 4 2 2 1 3 4 2 2 3 2 2 4 7 9 8 7 7 5 4 5 4 3 3 2 1 2 3 5 7 7 7 7 7 10 13 16 18 20 21 21 23 25 26 27 29 30 31 30 28 26 25 24 23
4 3 1 1 2 3 3 3 3 4 4 3 1 1 2 1 3 1 1 3 4 3 7 9 8 7 5 4 4 4 4 4 3 2 2 3 2 2 3 4 4 5 5 7 10 13 15 17 20 22 23 24 25 27 29 30 31 31 30 29 27 26 25
3 2 3 4 2 1 3 3 3 5 3 3 4 2 1 2 3 1 3 5 5 3 7 8 7 6 5 4 5 4 4 4 4 4 4 4 4 4 3 3 4 5 6 6 8 10 11 13 15 17 20 21 24 28 28 28 30 31 30 30 30 29 28
2 1 4 4 3 2 1 1 3 4 3 3 5 3 1 1 3 3 6 6 5 4 6 7 6 5 4 5 4 3 4 5 5 5 5 5 5 5 5 4 4 5 5 6 8 9 10 11 12 13 14 15 18 22 24 26 29 31 30 30 29 28 27
2 2 3 2 1 2 1 1 2 2 4 5 4 3 2 1 2 3 4 5 3 4 5 6 6 4 3 3 3 3 4 5 4 4 4 4 4 3 4 4 4 4 4 5 7 8 9 10 10 11 11 12 14 17 18 22 25 27 28 28 26 24 24
2 1 1 1 0 2 3 2 1 1 3 5 4 2 1 1 2 2 3 4 2 3 4 6 6 5 5 5 5 5 5 4 3 2 3 4 4 3 2 2 3 3 3 3 5 6 8 9 9 10 11 13 15 15 16 19 22 24 25 26 25 22 20
2 0 2 3 2 2 5 5 3 2 2 2 3 3 2 2 1 1 3 3 1 2 3 5 6 6 7 8 7 6 5 4 3 1 3 4 5 5 4 3 3 3 3 3 3 5 6 8 9 10 12 14 16 17 17 19 21 22 23 24 22 19 15
2 1 3 3 2 3 5 4 1 1 3 2 3 4 3 4 3 2 3 1 2 3 1 4 5 5 5 5 5 4 4 3 2 1 1 2 3 4 4 4 3 3 2 2 2 3 4 6 8 10 13 15 17 18 18 18 19 19 20 20 18 15 14
1 2 2 1 3 4 1 1 1 2 3 4 4 3 5 6 5 3 2 1 2 4 2 3 4 4 4 4 5 7 7 5 3 4 5 5 6 6 6 6 5 4 4 3 1 0 2 4 5 7 10 11 12 14 16 18 19 19 21 21 20 18 18
1 1 0 4 4 2 1 1 1 2 2 3 5 6 6 7 7 6 5 3 2 2 2 3 4 5 6 6 9 11 11 9 7 6 6 7 8 8 7 7 8 7 7 6 5 4 2 1 3 4 6 6 7 9 12 16 19 20 22 23 22 23 23
1 1 2 3 2 1 2 4 3 2 2 3 4 6 8 9 9 8 6 4 4 3 1 3 4 4 5 7 9 11 12 12 9 8 7 7 7 8 8 8 8 7 6 6 5 5 4 4 4 5 5 6 7 8 10 14 17 19 20 20 20 21 21
1 1 2 2 3 1 3 4 3 4 5 3 2 4 4 8 9 7 5 5 5 4 3 4 4 1 2 5 8 9 12 14 11 8 8 7 8 10 10 9 8 6 6 7 7 8 9 8 7 7 6 6 6 6 7 9 13 16 16 16 17 18 18
0 1 2 3 4 2 1 3 3 4 3 3 2 3 3 5 9 8 6 6 6 6 5 4 2 0 1 3 4 4 8 14 12 7 6 7 10 12 11 10 9 9 10 10 10 13 14 12 10 8 8 8 9 8 7 5 7 9 10 12 15 18 18
2 3 3 2 3 2 1 3 4 3 2 2 3 4 4 3 8 8 8 8 8 7 6 4 2 1 2 1 2 2 5 13 11 5 5 8 11 14 13 12 13 14 14 14 14 16 17 15 13 12 12 13 14 14 14 14 15 16 15 13 14 18 19
3 4 3 2 3 2 0 2 3 4 3 2 3 4 2 2 6 8 8 9 8 7 5 2 1 1 2 2 2 3 4 12 13 9 8 9 11 14 14 14 18 21 21 18 16 17 16 15 15 16 19 21 20 19 21 22 20 19 17 16 17 19 20
2 4 4 3 3 1 1 2 2 4 3 2 3 3 2 2 6 7 7 8 8 6 4 1 1 3 5 6 6 4 5 9 11 12 12 11 11 14 14 14 19 25 26 23 20 18 17 18 20 25 29 29 26 25 26 24 21 19 19 20 21 22 22
1 2 3 2 2 0 1 2 4 3 3 3 2 1 2 2 7 8 7 8 8 6 3 2 3 7 10 10 8 6 6 7 9 11 13 13 12 13 14 15 19 24 25 25 24 22 20 21 23 28 33 31 27 27 27 22 20 21 22 23 25 26 27
1 2 2 2 2 0 2 4 5 3 3 1 2 2 1 2 6 8 8 8 7 6 5 6 8 11 12 10 9 8 8 7 8 10 12 13 12 13 15 15 18 21 22 23 25 24 22 22 22 26 31 29 25 26 25 21 20 22 22 23 26 28 28
2 3 3 1 1 1 0 2 2 1 1 2 3 2 0 2 5 7 7 7 7 7 8 9 10 12 12 10 10 10 9 8 8 9 10 12 13 15 16 15 17 20 20 21 24 25 25 24 22 23 26 25 23 23 21 20 21 22 22 25 27 27 27
2 2 1 1 1 0 2 3 2 2 2 2 2 1 1 3 4 4 5 6 7 8 11 12 11 11 11 11 11 11 10 9 9 9 10 12 13 15 16 16 16 18 19 20 23 24 25 26 25 23 24 24 23 21 19 20 22 23 23 25 26 26 25
1 2 1 1 1 1 1 2 1 1 1 1 2 2 2 1 1 1 1 3 8 11 13 13 12 11 12 12 11 10 10 10 10 10 11 12 13 14 14 14 15 17 19 20 21 21 22 24 25 25 25 25 23 21 20 20 20 20 21 22 23 23 22
2 2 1 1 1 2 1 1 1 1 2 3 4 5 6 6 5 6 7 3 6 12 13 13 13 13 12 12 10 10 9 9 9 11 11 11 12 12 13 13 14 16 18 19 19 20 20 21 22 24 25 24 22 21 20 20 19 20 21 22 22 21 21
2 0 1 0 1 2 2 2 2 3 3 4 5 7 10 10 9 9 10 6 1 6 9 13 14 13 11 11 11 9 8 8 9 10 11 12 12 12 14 16 15 14 16 18 18 19 20 21 23 24 24 23 22 21 20 19 19 20 22 22 22 21 20
1 0 2 3 2 1 1 1 1 3 3 5 6 7 9 11 10 8 9 9 7 6 5 7 11 12 10 10 11 11 8 8 9 9 10 12 12 13 15 17 17 16 16 17 18 18 19 22 24 24 23 23 22 21 20 19 19 20 21 22 21 20 19
2 2 6 6 3 3 3 2 2 3 3 5 7 7 6 8 10 9 8 7 8 10 11 7 5 9 10 9 10 10 9 9 11 11 12 12 13 14 16 17 18 19 18 17 18 18 19 21 23 24 23 22 21 20 20 19 19 20 20 19 18 17 17
1 4 9 8 2 4 4 2 2 3 3 5 8 6 5 6 9 10 8 5 4 7 12 13 7 4 8 12 12 10 9 11 13 13 14 14 14 15 16 17 17 18 19 19 19 19 18 18 19 21 22 23 22 21 20 19 18 18 18 17 15 13 13
1 4 9 7 3 6 7 4 2 2 2 5 8 6 4 6 9 9 8 6 5 4 7 12 12 7 5 9 12 11 10 11 13 14 14 15 15 15 16 16 16 15 17 18 19 19 18 18 17 17 18 19 20 20 20 20 20 19 19 18 15 12 12
2 5 7 5 4 8 8 4 1 1 2 3 6 5 5 8 10 10 8 6 6 8 8 9 11 11 9 8 9 12 12 11 12 14 14 14 15 15 15 16 17 16 17 17 18 18 18 18 17 16 16 16 16 16 17 18 19 19 19 18 15 12 11

ECMWFFLT2_925_spd_123.txt.gz
Wind_Speed
4 5 5 4 6 5 2 6 7 4 7 10 9 8 7 5 5 5 4 7 3 2 2 2 2 3 9 11 12 14 13 11 10 9 8 7 12 15 15 15 15 16 18 20 20 20 20 19 19 19 18 19 19 18 19 20 20 20 20 20 19 18 18
3 2 8 6 4 4 2 3 5 5 7 8 7 5 5 6 7 5 5 9 4 4 2 4 4 3 4 8 11 13 13 11 10 10 10 6 11 16 16 15 16 17 18 20 20 20 20 20 20 19 18 18 18 17 19 20 20 21 21 21 20 19 18
2 2 7 7 3 4 6 2 2 5 4 4 5 6 7 8 7 4 6 11 7 2 2 1 2 2 4 5 8 13 14 13 11 10 11 8 11 17 16 15 15 15 17 20 21 20 20 20 19 20 19 18 19 18 18 19 20 21 21 21 20 19 19
1 3 5 5 2 5 8 4 4 6 3 2 3 3 5 7 6 4 6 8 4 3 2 2 2 1 1 5 8 10 13 14 12 11 11 10 9 14 13 14 14 15 18 22 22 21 21 20 19 19 20 19 19 19 18 19 20 20 20 20 20 20 19
3 3 2 3 2 3 7 6 5 6 5 5 4 2 4 7 6 3 5 6 1 3 2 2 5 5 2 2 6 9 9 13 13 12 11 10 9 11 11 13 14 15 19 22 22 21 21 21 20 19 20 19 19 19 19 19 20 20 20 20 19 19 19
4 2 1 3 3 3 5 5 5 6 4 2 2 4 7 8 6 5 5 6 0 3 2 2 5 5 7 4 3 7 9 11 12 11 9 9 11 13 12 14 15 15 18 21 22 22 21 21 21 20 20 19 19 19 19 19 19 20 20 19 19 18 18
8 2 2 2 3 5 8 6 4 5 3 2 2 3 7 7 7 6 6 7 2 3 0 2 4 1 6 5 1 4 9 8 11 11 10 7 7 7 8 12 14 14 17 20 21 22 22 21 21 21 20 19 19 18 19 19 19 19 18 18 18 18 17
9 3 1 3 2 3 8 5 3 5 5 5 3 4 8 9 7 6 6 6 1 3 2 3 2 2 1 4 4 3 6 3 8 10 10 8 5 4 8 11 12 13 15 16 15 17 19 20 20 21 20 19 18 18 18 18 18 18 18 18 18 18 17
7 5 3 5 4 4 6 1 4 5 8 12 9 7 8 9 7 6 6 4 0 2 3 5 4 4 3 5 5 5 6 3 4 7 8 8 6 6 9 11 12 14 14 13 13 14 16 18 20 20 20 19 18 18 18 17 17 17 17 17 17 18 18
6 5 4 3 2 5 5 3 2 7 14 14 9 6 6 5 5 6 5 2 2 2 3 7 6 6 2 5 4 5 4 3 2 4 6 8 8 7 8 9 12 14 13 13 16 17 17 18 19 18 18 18 18 18 19 18 17 17 17 17 17 17 18
7 8 7 5 3 7 8 3 4 11 12 6 6 5 5 4 5 4 2 2 4 3 4 7 7 6 3 5 4 3 2 1 1 3 4 6 7 5 4 5 7 11 14 15 16 18 19 18 18 17 17 17 17 19 20 20 19 19 19 19 18 18 18
10 11 8 6 6 7 10 9 8 11 8 5 5 4 7 10 8 3 1 3 6 1 4 3 6 4 4 5 3 2 2 2 2 3 4 5 6 5 4 4 4 8 12 13 14 17 18 18 18 18 18 19 19 19 19 19 19 19 19 20 19 19 19
9 11 7 6 5 4 7 10 10 9 8 8 8 5 5 10 10 5 3 4 8 4 2 3 6 1 3 0 1 1 2 3 3 3 4 4 5 4 4 5 5 6 10 10 12 15 16 17 17 18 17 18 18 17 17 17 18 18 18 19 19 19 18
9 11 8 6 6 5 5 9 11 11 10 10 10 8 8 10 9 8 5 4 8 7 3 6 4 4 4 3 2 2 2 2 3 3 3 2 2 3 3 6 6 7 8 8 10 15 16 16 16 16 15 16 16 16 16 16 17 17 17 17 17 18 18
9 11 9 7 8 7 7 10 12 12 12 12 12 11 11 9 7 8 8 7 7 6 3 4 4 5 3 4 2 3 2 3 3 3 4 3 1 3 5 7 8 5 5 8 10 14 16 16 16 15 14 15 15 15 15 15 16 16 17 16 16 16 16
8 10 10 7 7 9 10 12 12 12 12 11 10 10 6 4 6 8 9 8 5 2 5 6 3 4 3 4 3 2 2 3 3 3 5 5 3 2 3 7 8 6 6 11 13 12 14 14 15 15 14 14 15 14 14 15 15 15 15 15 16 15 13
7 9 6 4 6 9 9 7 4 6 10 9 10 9 4 6 7 7 6 6 5 3 4 7 3 3 2 2 4 3 2 3 4 4 5 7 8 7 4 2 1 1 1 5 5 4 7 9 10 11 11 11 11 12 12 12 13 14 15 15 15 15 14
8 8 2 3 7 8 4 1 3 4 7 6 9 10 6 6 6 2 1 5 6 4 5 5 1 2 3 4 4 3 2 2 3 3 3 6 10 11 8 6 5 5 7 8 8 7 4 4 6 5 6 7 7 8 10 11 12 13 14 14 14 15 16
8 7 2 4 8 3 2 2 1 2 5 7 9 10 11 11 8 6 7 6 4 6 6 2 1 2 3 4 3 3 3 2 1 1 1 1 6 10 10 8 8 7 6 5 7 10 9 7 6 6 4 4 4 5 7 9 10 11 12 13 14 14 15
6 6 6 7 4 2 2 5 3 3 5 7 9 10 9 8 5 6 6 3 3 8 7 1 2 3 4 4 4 4 5 4 2 1 0 1 3 7 10 8 9 11 8 4 5 7 8 7 7 7 7 6 4 4 4 4 5 7 8 9 11 12 12
6 7 7 6 6 6 7 6 3 2 5 4 5 7 7 4 2 3 4 3 7 10 5 3 3 4 4 2 3 6 6 6 5 4 3 3 4 7 10 9 11 14 12 7 8 11 11 10 8 8 10 10 9 8 7 6 5 3 2 1 3 6 8
5 5 6 7 8 6 2 1 1 0 3 5 6 6 6 4 2 2 5 6 9 10 4 3 3 3 2 1 2 6 7 6 6 6 5 4 5 7 10 9 11 16 15 12 14 15 14 12 11 10 11 12 12 11 10 9 8 8 7 5 4 2 2
5 6 6 6 7 4 2 3 2 1 2 5 6 6 4 5 9 6 3 4 5 5 3 2 1 2 2 1 2 5 6 5 6 6 5 5 5 7 10 10 12 16 18 17 17 16 14 13 12 12 13 13 13 13 11 10 10 9 8 6 4 3 1
7 8 7 6 6 3 3 3 3 3 3 3 7 6 3 3 7 6 3 2 3 6 4 3 2 2 1 2 3 2 2 4 6 6 6 6 5 7 11 11 12 17 20 19 18 16 14 12 12 14 16 17 16 15 13 13 13 12 10 8 5 1 1
9 9 8 7 4 2 3 0 2 2 3 4 6 4 1 3 4 5 4 4 7 6 3 2 2 0 1 5 8 8 5 6 7 7 8 8 7 8 12 13 15 19 22 20 18 16 15 14 15 19 21 21 20 19 18 18 17 14 11 11 12 9 8
8 7 8 7 4 1 2 2 1 1 3 5 3 1 1 1 2 4 5 4 4 4 3 1 1 4 5 6 9 10 8 8 9 8 9 10 9 11 13 16 19 21 22 20 19 19 18 18 20 23 26 26 23 21 21 21 18 16 16 16 18 19 19
6 7 7 7 3 0 0 1 1 1 3 3 1 1 1 1 3 4 3 2 2 2 6 4 1 3 7 6 7 10 9 10 11 11 12 12 12 13 14 15 19 21 21 22 21 19 19 20 20 23 25 24 21 20 20 19 19 21 22 21 21 22 23
5 6 4 2 1 1 1 2 2 1 2 1 3 2 2 3 3 3 1 1 2 1 6 8 6 5 7 6 6 8 9 10 11 12 14 15 15 15 15 17 20 22 22 23 22 20 20 21 21 21 22 21 19 19 18 16 17 21 23 23 24 23 23
5 6 2 2 1 2 1 3 3 2 1 1 3 5 6 4 2 2 3 0 2 1 2 6 8 7 8 7 5 3 3 8 12 13 14 16 17 17 18 19 19 20 22 24 24 23 22 22 21 19 19 20 19 18 17 16 17 18 19 22 23 22 21
4 5 3 2 2 2 2 3 1 1 4 4 3 4 5 4 2 2 3 3 4 2 1 3 7 9 10 9 7 7 6 3 8 12 14 16 17 18 19 20 19 20 22 23 24 24 23 21 20 18 17 18 19 18 17 17 17 18 18 20 20 19 19
3 2 2 2 2 2 3 3 2 2 4 4 4 4 4 3 3 2 3 3 3 4 5 8 11 11 10 9 7 7 6 5 6 11 14 15 16 18 19 20 20 21 22 23 23 24 23 22 20 19 18 18 19 19 19 18 18 18 19 19 19 17 17
6 4 2 1 2 2 3 4 4 3 2 1 2 4 3 2 2 1 4 3 3 4 8 11 13 13 12 10 9 8 7 5 6 10 13 13 14 17 18 19 19 19 20 22 22 22 21 20 19 18 19 18 18 18 17 17 17 18 18 17 17 16 15
7 6 4 4 4 4 4 3 2 2 2 1 2 3 3 3 3 3 6 3 2 6 10 12 13 14 13 13 12 11 10 7 7 11 14 14 15 18 19 19 19 18 18 20 21 21 20 19 18 18 18 18 17 17 16 15 15 16 16 16 15 15 14
6 3 2 3 3 2 2 2 1 1 1 2 2 2 3 3 3 5 6 4 4 8 11 13 14 14 14 15 14 13 12 10 9 10 12 14 17 19 20 20 20 19 18 19 21 21 19 18 18 18 17 17 16 16 15 15 14 14 14 14 14 14 14
3 1 2 2 2 1 2 2 3 2 1 2 2 2 2 1 1 4 7 8 8 9 10 13 15 14 14 16 16 13 13 13 10 7 8 12 16 19 20 20 20 19 18 19 20 20 19 18 17 17 17 16 16 15 14 13 13 13 13 13 14 14 13
1 3 3 1 2 4 5 4 4 3 3 3 2 4 6 5 2 2 6 9 12 12 11 13 16 16 16 19 18 15 14 15 10 5 7 12 16 18 19 19 19 19 19 18 19 19 18 18 18 17 17 16 15 15 14 13 12 12 12 13 14 14 13
1 4 5 5 6 7 7 6 5 5 5 5 5 6 7 4 0 3 7 10 14 15 13 13 16 19 20 22 20 17 16 18 15 11 9 10 13 17 19 19 18 18 18 17 17 18 18 18 18 18 17 17 16 15 15 14 14 14 13 13 13 12 11